Weather History for KTTD - March, 2013

Change the Weather History Date:

Thursday, March 21, 2013

  Actual Average Record
Temperature  
Mean Temperature 43 °F 48 °F  
Max Temperature 48 °F 58 °F 71 °F (1978)
Min Temperature 38 °F 39 °F 29 °F (1952)
Degree Days  
Heating Degree Days 22 17  
Month to date heating degree days 365 387  
Cooling Degree Days 0 0  
Month to date cooling degree days 0 0  
Moisture  
Dew Point 35 °F    
Average Humidity 69    
Maximum Humidity 85    
Minimum Humidity 53    
Precipitation  
Precipitation 0.03 in 0.15 in 1.10 in (1948)
Month to date precipitation 1.47 3.19  
Year to date precipitation 6.22 14.46  
Snow  
Snow 0.00 in - - ()
Month to date snowfall 0.0  
Snow Depth 0.00 in    
Sea Level Pressure  
Sea Level Pressure 30.25 in    
Wind  
Wind Speed 6 mph (WSW)    
Max Wind Speed 16 mph    
Max Gust Speed 22 mph    
Visibility 10 miles    
Events Rain    
T = Trace of Precipitation, MM = Missing Value Source: NWS Daily Summary

Daily Weather History Graph

Daily Weather History Graph

Search for Another Location

Airport or City:

Trip Planner

Search our weather history database for the weather conditions in past years. The results will help you decide how hot, cold, wet, or windy it might be!

Date:

Astronomy

Mar. 21, 2013 Rise Set
Actual Time 7:10 AM PDT 7:23 PM PDT
Civil Twilight 6:40 AM PDT 7:53 PM PDT
Nautical Twilight 6:05 AM PDT 8:28 PM PDT
Astronomical Twilight 5:30 AM PDT 9:04 PM PDT
Moon 1:45 PM PDT (3/21) 3:50 AM PDT (3/21)
Length of Visible Light 13h 13m
Length of Day
12h 13m
Waxing Gibbous, 69% of the Moon is Illuminated
Mar 21
Waxing Gibbous
Mar 27
Full
Apr 2
Last Quarter
Apr 10
New
Apr 18
First Quarter

Hourly Weather History & Observations

Time (PDT) Temp. Windchill Dew Point Humidity Pressure Visibility Wind Dir Wind Speed Gust Speed Precip Events Conditions
12:53 AM 42.1 °F 36.6 °F 33.1 °F 70% 30.18 in 10.0 mi WSW 9.2 mph - 0.00 in   Overcast
1:53 AM 41.0 °F 35.2 °F 34.0 °F 76% 30.19 in 10.0 mi SW 9.2 mph - 0.00 in   Overcast
2:53 AM 41.0 °F 35.8 °F 34.0 °F 76% 30.20 in 10.0 mi SW 8.1 mph - N/A   Overcast
3:53 AM 41.0 °F 36.4 °F 34.0 °F 76% 30.21 in 10.0 mi SSW 6.9 mph - 0.00 in   Overcast
4:53 AM 41.0 °F 33.5 °F 34.0 °F 76% 30.21 in 10.0 mi SW 13.8 mph - N/A   Overcast
5:53 AM 39.9 °F 36.7 °F 34.0 °F 79% 30.21 in 10.0 mi West 4.6 mph - 0.00 in   Overcast
6:53 AM 39.9 °F 32.1 °F 34.0 °F 79% 30.22 in 10.0 mi SW 13.8 mph - N/A   Overcast
7:53 AM 39.9 °F 35.8 °F 35.1 °F 83% 30.23 in 10.0 mi SW 5.8 mph - 0.00 in   Overcast
8:53 AM 39.9 °F 35.8 °F 35.1 °F 83% 30.25 in 10.0 mi West 5.8 mph - N/A   Overcast
9:04 AM 39.2 °F 33.6 °F 35.6 °F 87% 30.25 in 10.0 mi SW 8.1 mph - 0.00 in Rain Light Rain
9:53 AM 41.0 °F 35.8 °F 36.0 °F 82% 30.26 in 10.0 mi SW 8.1 mph - 0.00 in   Overcast
10:17 AM 42.8 °F 39.3 °F 35.6 °F 76% 30.26 in 10.0 mi SW 5.8 mph - N/A   Overcast
10:53 AM 43.0 °F 37.7 °F 36.0 °F 76% 30.27 in 10.0 mi SW 9.2 mph - N/A   Overcast
11:44 AM 44.6 °F 42.2 °F 35.6 °F 71% 30.28 in 10.0 mi West 4.6 mph - N/A   Overcast
11:53 AM 45.0 °F 41.8 °F 34.0 °F 65% 30.28 in 10.0 mi WNW 5.8 mph - N/A   Overcast
12:04 PM 44.6 °F - 35.6 °F 71% 30.28 in 10.0 mi Calm Calm - N/A   Overcast
12:53 PM 46.9 °F - 35.1 °F 63% 30.26 in 10.0 mi Variable 4.6 mph - N/A   Overcast
1:00 PM 46.4 °F 42.9 °F 33.8 °F 62% 30.26 in 10.0 mi NW 6.9 mph - N/A   Overcast
1:53 PM 45.0 °F 39.7 °F 35.1 °F 68% 30.26 in 9.0 mi West 10.4 mph - 0.00 in Rain Light Rain
2:07 PM 42.8 °F 38.0 °F 33.8 °F 70% 30.26 in 5.0 mi West 8.1 mph 16.1 mph 0.01 in Rain Light Rain
2:32 PM 44.6 °F 41.4 °F 37.4 °F 76% 30.24 in 10.0 mi WSW 5.8 mph - 0.02 in   Overcast
2:53 PM 48.0 °F - 35.1 °F 61% 30.24 in 10.0 mi NW 5.8 mph - 0.02 in   Mostly Cloudy
3:53 PM 43.0 °F - 35.1 °F 74% 30.24 in 10.0 mi Calm Calm - 0.00 in Rain Light Rain
4:53 PM 46.0 °F 44.8 °F 37.0 °F 71% 30.23 in 10.0 mi ESE 3.5 mph - 0.00 in   Mostly Cloudy
5:53 PM 46.0 °F 42.5 °F 34.0 °F 63% 30.23 in 10.0 mi NW 6.9 mph 17.3 mph N/A   Overcast
6:53 PM 46.0 °F 42.5 °F 30.0 °F 54% 30.25 in 10.0 mi West 6.9 mph - N/A   Overcast
7:53 PM 42.1 °F 38.4 °F 34.0 °F 73% 30.27 in 10.0 mi WNW 5.8 mph - 0.01 in   Overcast
8:38 PM 42.8 °F 38.6 °F 33.8 °F 70% 30.28 in 10.0 mi WNW 6.9 mph - 0.00 in   Overcast
8:53 PM 42.1 °F 37.7 °F 33.1 °F 70% 30.28 in 10.0 mi WNW 6.9 mph - 0.00 in   Overcast
9:53 PM 39.9 °F - 33.1 °F 77% 30.30 in 10.0 mi Calm Calm - 0.00 in   Scattered Clouds
10:53 PM 39.0 °F - 35.1 °F 86% 30.31 in 10.0 mi Calm Calm - N/A   Overcast
11:53 PM 39.0 °F - 35.1 °F 86% 30.31 in 10.0 mi Calm Calm - 0.00 in Rain Light Rain